Weather History for Eagle, AK

Change the Weather History Date:

Thursday, May 16, 2013

  Actual Average (PABN) Record (PABN)
Temperature  
Mean Temperature 42 °F -  
Max Temperature 57 °F 47 °F 62 °F (2014)
Min Temperature 27 °F 37 °F 28 °F (2013)
Degree Days  
Heating Degree Days 23    
Moisture  
Dew Point 20 °F    
Average Humidity 42    
Maximum Humidity 78    
Minimum Humidity 20    
Precipitation  
Precipitation 0.00 in - - ()
Sea Level Pressure  
Sea Level Pressure 29.62 in    
Wind  
Wind Speed 4 mph (SSE)    
Max Wind Speed 13 mph    
Max Gust Speed 22 mph    
Visibility 10 miles    
Events      
Averages and records for this station are not official NWS values.
T = Trace of Precipitation, MM = Missing Value Source: NWS Daily Summary

Daily Weather History Graph

Daily Weather History Graph

Search for Another Location

Airport:

Trip Planner

Search our weather history database for the weather conditions in past years. The results will help you decide how hot, cold, wet, or windy it might be!

Date:

Astronomy

May. 16, 2013 Rise Set
Actual Time 3:57 AM AKDT 10:47 PM AKDT
Civil Twilight 1:34 AM AKDT 12:48 AM AKDT
Nautical Twilight Sun does not rise Sun does not rise
Astronomical Twilight Sun does not rise Sun does not rise
Moon 10:36 AM AKDT (5/16) 2:19 AM AKDT (5/16)
Length of Visible Light 23h 13m
Length of Day
18h 49m
Waxing Crescent, 37% of the Moon is Illuminated
May 16
Waxing Crescent
May 17
First Quarter
May 24
Full
May 31
Last Quarter
Jun 8
New

Hourly Weather History & Observations

Time (AKDT) Temp. Windchill Dew Point Humidity Pressure Visibility Wind Dir Wind Speed Gust Speed Precip Events Conditions
12:53 AM 30.0 °F - 21.0 °F 69% 29.69 in 10.0 mi Calm Calm - N/A   Clear
1:53 AM 28.0 °F - 21.0 °F 75% 29.70 in 10.0 mi Calm Calm - N/A   Clear
2:53 AM 28.0 °F 24.2 °F 21.9 °F 78% 29.70 in 10.0 mi SSW 3.5 mph - N/A   Clear
3:53 AM 27.0 °F - 21.0 °F 78% 29.71 in 10.0 mi Calm Calm - N/A   Clear
4:53 AM 27.0 °F - 21.0 °F 78% 29.72 in 10.0 mi Calm Calm - N/A   Clear
5:53 AM 30.9 °F - 23.0 °F 72% 29.72 in 10.0 mi Calm Calm - N/A   Clear
6:53 AM 36.0 °F 31.1 °F 21.9 °F 57% 29.71 in 10.0 mi Variable 5.8 mph - N/A   Clear
7:53 AM 44.1 °F 38.6 °F 16.0 °F 32% 29.70 in 10.0 mi ESE 10.4 mph 17.3 mph N/A   Clear
8:53 AM 46.0 °F 41.9 °F 16.0 °F 30% 29.70 in 10.0 mi SE 8.1 mph - N/A   Clear
9:53 AM 48.0 °F - 17.1 °F 29% 29.69 in 10.0 mi SE 5.8 mph - N/A   Clear
10:53 AM 48.9 °F - 17.1 °F 28% 29.68 in 10.0 mi SSE 10.4 mph 19.6 mph N/A   Clear
11:53 AM 51.1 °F - 18.0 °F 27% 29.66 in 10.0 mi Variable 6.9 mph 20.7 mph N/A   Clear
12:53 PM 51.1 °F - 18.0 °F 27% 29.65 in 10.0 mi SE 10.4 mph 19.6 mph N/A   Overcast
1:53 PM 53.1 °F - 17.1 °F 24% 29.62 in 10.0 mi SSE 10.4 mph 21.9 mph N/A   Mostly Cloudy
2:53 PM 55.0 °F - 17.1 °F 23% 29.60 in 10.0 mi SSE 8.1 mph - N/A   Clear
3:53 PM 55.9 °F - 17.1 °F 22% 29.58 in 10.0 mi South 10.4 mph 19.6 mph N/A   Partly Cloudy
4:53 PM 55.9 °F - 15.1 °F 20% 29.55 in 10.0 mi South 12.7 mph 20.7 mph N/A   Clear
5:53 PM 57.0 °F - 17.1 °F 21% 29.53 in 10.0 mi South 8.1 mph 18.4 mph N/A   Clear
6:53 PM 54.0 °F - 19.9 °F 26% 29.53 in 10.0 mi Variable 6.9 mph 20.7 mph N/A   Mostly Cloudy
7:53 PM 53.1 °F - 21.9 °F 30% 29.51 in 10.0 mi SSW 5.8 mph - N/A   Partly Cloudy
8:53 PM 52.0 °F - 21.9 °F 31% 29.50 in 10.0 mi SSE 3.5 mph - N/A   Overcast
9:53 PM 51.1 °F - 24.1 °F 35% 29.50 in 10.0 mi SE 5.8 mph - N/A   Overcast
10:53 PM 48.0 °F - 27.0 °F 44% 29.50 in 10.0 mi ESE 3.5 mph - N/A   Mostly Cloudy
11:53 PM 46.0 °F 43.1 °F 30.9 °F 56% 29.49 in 10.0 mi ESE 5.8 mph - N/A   Overcast